一网星座-0679星 (ONEWEB-0679)

导读 | 星芒AI

ONEWEB-0679 是 OneWeb 卫星星座计划中的一颗低轨通信卫星,旨在为全球提供高速互联网服务。该卫星采用标准化设计,具备高容量通信能力,支持偏远和农村地区的网络接入。作为 OneWeb 扩展其全球覆盖计划的一部分,ONEWEB-0679 于近期成功发射并进入预定轨道,加入其在近地轨道的卫星网络,助力实现全球无缝宽带连接。

基本信息
目录编号:
56715
目录名称:
ONEWEB-0679
国际标识:
2023-068F
轨道中心:
EARTH
卫星名称:
一网星座-0679星
卫星全名:
一网星座-0679星 (ONEWEB-0679)
卫星状态:
在轨 (已飞行894 天)
发射日期:
2023-05-20 UTC
国别 :
英国 (GB)
星等 :
--
轨道信息
数据来源 国际轨道数据 AOE轨道数据
星历时间 2025-10-30T05:31:43+0800
7小时前
查看轨道信息
2025-10-24T16:00:00+0800
5天前
查看轨道信息
半长轴 7575.895km 7575.88km
偏心率 0.0001658 0.0002069
轨道倾角 87.898° 87.901°
近地点辐角 69.709° 32.045°
升交点赤经 274.635° 275.755°
平近点角 290.421° 252.705°
近地点 1196.503km 1196.177km
远地点 1199.017km 1199.313km
周期 109.373分钟 109.373分钟
每日圈数 13.16594 13.165979
详细信息
平衡模式:
三轴稳定
覆盖范围:
全球
运营商:
一网卫星公司
运营商所在国:
英国
制造商(研发单位):
一网卫星公司
制造商所在国:
英国
使用方式:
暂无
卫星简介
OneWeb卫星网络由648颗重约125公斤的微型卫星组成,运行在1200公里的轨道上。 每颗卫星都能够提供至少每秒8千兆位的吞吐量,以使用其高吞吐量的Ku频段有效载荷为家庭和移动平台提供互联网接入。该卫星仍在工作。
2D轨道图
3D轨道图
轨道高度分析图
轨道倾角分析图
轨道综合分析图
查看轨道综合分析图